Flag for Poland Weather past 2 weeks in Olsztyn, Poland

Now
57 °F

Clear.


Feels Like: 57 °F
Forecast: 49 / 72 °F
Wind: 3 mph from Southeast

Location: Ketrzyn

Current Time: Sep 17, 2014 at 10:28:14 PM

Latest Report: Sep 17, 2014 at 9:00 PM


Visibility: 15 mi

Pressure: 30.25 "Hg

Humidity: 64%

Dew point: 45 °F

Location of OlsztynLocation

Historic Weather in Olsztyn — Graph

°F

Olsztyn temperature yesterday

Maximum temperature yesterday: 67 °F (at 4:00 PM)
Minimum temperature yesterday: 47 °F (at 6:00 AM)
Average temperature yesterday: 56 °F

Past Weeks' High & Low Weather Summary

 TemperatureHumidityPressure
High80 °F (Sep 13, 4:00 PM)97% (Sep 11, 3:00 AM)30.40 "Hg (Sep 11, 3:00 AM)
Low47 °F (Sep 16, 6:00 AM)34% (Sep 7, 5:00 PM)29.90 "Hg (Sep 9, 4:00 PM)
Average62 °F69%30.16 "Hg
* Reported Sep 2 9:00 PM — Sep 17 9:00 PM, Olsztyn, Weather by CustomWeather, © 2014

Note: Actual official high and low records may vary slightly from our data, if they occured in-between our weather recording intervals... More about our weather records

Advertising

Olsztyn weather history for previous 24 hours

 ConditionsComfort  
Time TempWeatherWind HumidityBarometerVisibility
9:00 PM
Sep 17
57 °FClear.3 mph64%30.25 "Hg15 mi
8:00 PM59 °FPassing clouds.3 mph59%30.24 "Hg9 mi
7:00 PM61 °FPassing clouds.3 mph55%30.23 "Hg10 mi
6:00 PM65 °FScattered clouds.5 mph47%30.22 "Hg19 mi
5:00 PM68 °FScattered clouds.6 mph42%30.22 "Hg22 mi
4:00 PM69 °FScattered clouds.7 mph41%30.23 "Hg19 mi
3:00 PM68 °FScattered clouds.8 mph43%30.24 "Hg18 mi
2:00 PM67 °FPartly sunny.8 mph43%30.26 "Hg18 mi
1:00 PM68 °FScattered clouds.8 mph41%30.27 "Hg17 mi
12:00 PM67 °FScattered clouds.7 mph45%30.28 "Hg16 mi
11:00 AM64 °FScattered clouds.5 mph57%30.29 "Hg19 mi
10:00 AM61 °FScattered clouds.5 mph64%30.30 "Hg17 mi
9:00 AM57 °FScattered clouds.5 mph73%30.30 "Hg14 mi
8:00 AM53 °FScattered clouds.5 mph81%30.30 "Hg15 mi
7:00 AM49 °FScattered clouds.3 mph87%30.30 "Hg10 mi
6:00 AM49 °FPassing clouds.3 mph87%30.30 "Hg11 mi
5:00 AM47 °FClear.1 mph90%30.30 "Hg9 mi
4:00 AM50 °FClear.3 mph85%30.30 "Hg11 mi
3:00 AM50 °FClear.1 mph83%30.30 "Hg12 mi
2:00 AM51 °FClear.5 mph82%30.29 "Hg14 mi
1:00 AM52 °FClear.5 mph81%30.29 "Hg12 mi
12:00 AM53 °FClear.3 mph81%30.30 "Hg10 mi
11:00 PM
Sep 16
54 °FClear.3 mph79%30.29 "Hg10 mi
10:00 PM55 °FClear.2 mph75%30.29 "Hg9 mi
Weather by CustomWeather, © 2014

See weather overviewHow to use our weather pages